Find Fuji-OSCAR-29

NORAD ID: 24278 Int'l Des: 1996-046 Owner: JARL Country: J operational
LEORETROGRADE

Live Position

Loading 3D Globe...

About Fuji-OSCAR-29

Description loading...

Upcoming Passes

Passes for default location (London). Set your location on the main map for personalized predictions.

Altitude History

Loading altitude history...

Two-Line Element Set

1 24278U 96046B 26105.83499556 -.00000018 00000-0 20375-4 0 9992
2 24278 98.5318 323.2193 0348824 258.2176 97.9644 13.53271183464739
Epoch: Apr 15, 2026 • Age: 7 hours

Current Status

Altitude 1317.7 km
Velocity 7.08 km/s
Sub-Earth Point 59.43°N, 52.82°E
Launch Date Aug 17, 1996
Age 29.6 years
Type other

Technical Details

Classification Payload
Mass 50.00 kg
Dry Mass 50.00 kg
Total Mass 50.00 kg
Length 0.50 m
Diameter 0.40 m
Span 0.50 m
Shape Poly + Ant
Manufacturer JARL
Bus Type JAS
Phase Status Unknown Transfer Status
Owner/State JARL/J

Most Searched